Torna al catalogo

STARLINK-5916

AttivoComunicazioniVLEO
NORAD 55988·PAYLOAD·🇺🇸 United States

Lanciato Mar 24, 2023 da Cape Canaveral Space Force Station

Loading…

Prossimi Passaggi (prossime 24 ore)

TLE

AggiornatoSource: CelesTrak SupGP

Epoca: Sep 15, 2026, 01:38 UTC

1 55988C 23042C   26258.06854167 -.00004124  00000+0 -14937-3 0  2583
2 55988  43.0020  74.1945 0001339 270.1113 125.1501 15.27585270    15

Traccia STARLINK-5916 in tempo reale con AllMySat

Download on the App Store